Location: Newark
(31.5350°N, 35.0986°E)
Time: 13:16:53
(UTC+00:00)

Vanguard 1 - Pass Details

Date: 24 September 2019
Orbit: 653 x 3830 km, 34.2° (Epoch: 17 October)

Event Time Altitude Azimuth Distance (km) Brightness Sun altitude
Rises 01:29:06 0° 271° (W) 7,909 - -26.0°
Reaches altitude 10° 01:34:30 10° 273° (W) 6,935 - -24.9°
Exits shadow 01:41:24 25° 275° (W) 5,664 13.3 -23.4°
Maximum altitude 01:58:09 82° 2° (N) 3,211 12.5 -20.0°
Drops below altitude 10° 02:13:06 10° 91° (E) 4,714 14.8 -16.9°
Sets 02:16:00 0° 93° (E) 5,385 15.5 -16.3°
